Flag for Argentina Weather past 2 weeks in Buenos Aires, Argentina

Now
59 °F

Scattered clouds.


Feels Like: 56 °F
Forecast: N/A
Wind: 14 mph from Southeast

Location: Buenos Aires Airport

Current Time: Oct 1, 2014 at 5:39:32 PM

Latest Report: Oct 1, 2014 at 5:00 PM


Visibility: N/A

Pressure: 30.30 "Hg

Humidity: 72%

Dew point: 50 °F

Location of Buenos AiresLocation

Historic Weather in Buenos Aires — Graph

°F

Buenos Aires temperature yesterday

Maximum temperature yesterday: 72 °F (at 4:00 PM)
Minimum temperature yesterday: 61 °F (at 5:00 AM)
Average temperature yesterday: 65 °F

Past Weeks' High & Low Weather Summary

 TemperatureHumidityPressure
High73 °F (Sep 19, 6:00 PM)100% (Sep 29, 3:00 AM)30.30 "Hg (Sep 29, 3:00 AM)
Low50 °F (Sep 26, 6:00 AM)22% (Sep 26, 6:00 PM)29.65 "Hg (Sep 25, 4:00 PM)
Average62 °F69%30.00 "Hg
* Reported Sep 16 4:00 PM — Oct 1 4:00 PM, Buenos Aires, Weather by CustomWeather, © 2014

Note: Actual official high and low records may vary slightly from our data, if they occured in-between our weather recording intervals... More about our weather records

Advertising

Buenos Aires weather history for previous 24 hours

 ConditionsComfort  
Time TempWeatherWind HumidityBarometerVisibility
4:00 PM
Oct 1
59 °FPartly sunny.9 mph72%30.30 "HgN/A
3:00 PM59 °FPartly sunny.8 mph68%30.30 "Hg5 mi
2:00 PM57 °FOvercast.9 mph77%30.30 "Hg5 mi
1:00 PM57 °FOvercast.10 mph72%30.30 "Hg5 mi
12:00 PM55 °FOvercast.10 mph82%30.30 "Hg5 mi
11:00 AM55 °FOvercast.10 mph82%30.30 "Hg5 mi
10:00 AM55 °FDrizzle. Overcast.12 mph82%30.27 "Hg4 mi
9:00 AM57 °FOvercast.12 mph82%30.24 "Hg6 mi
8:00 AM57 °FOvercast.16 mph82%30.21 "Hg5 mi
7:00 AM57 °FPartly sunny.17 mph82%30.18 "HgN/A
6:00 AM57 °FPartly sunny.14 mph88%30.15 "HgN/A
5:00 AM59 °FPassing clouds.7 mph88%30.15 "HgN/A
4:00 AM61 °FClear.7 mph88%30.12 "Hg10 mi
3:00 AM61 °FClear.7 mph88%30.09 "Hg10 mi
2:00 AM61 °FClear.7 mph94%30.09 "Hg10 mi
1:00 AM63 °FClear.9 mph83%30.09 "Hg10 mi
12:00 AM63 °FClear.9 mph83%30.09 "Hg10 mi
11:00 PM
Sep 30
63 °FClear.16 mph77%30.09 "Hg10 mi
10:00 PM63 °FClear.16 mph77%30.09 "Hg10 mi
9:00 PM64 °FClear.14 mph64%30.07 "Hg10 mi
8:00 PM66 °FClear.18 mph56%30.04 "Hg10 mi
7:00 PM68 °FClear.17 mph53%30.04 "Hg10 mi
6:00 PM70 °FClear.16 mph50%30.01 "Hg10 mi
5:00 PM72 °FSunny.14 mph38%30.01 "Hg10 mi
Weather by CustomWeather, © 2014

See weather overviewHow to use our weather pages